Mullan Pass, ID

8:25 PM PST on February 23, 2018 (GMT -0800)
Mullan Pass

Weather History for KMLP - November, 2012

Change the Weather History Date:

Thursday, November 8, 2012

  Actual Average (K3TH) Record (K3TH)
Temperature  
Mean Temperature 22 °F -  
Max Temperature 24 °F 42 °F 46 °F (2001)
Min Temperature 21 °F 30 °F 23 °F (2001)
Degree Days  
Heating Degree Days 42    
Moisture  
Dew Point 21 °F    
Average Humidity 93    
Maximum Humidity 100    
Minimum Humidity 80    
Precipitation  
Precipitation 0.38 in - - ()
Sea Level Pressure  
Sea Level Pressure 29.65 in    
Wind  
Wind Speed 8 mph (ESE)    
Max Wind Speed 15 mph    
Max Gust Speed 25 mph    
Visibility 3 miles    
Events Fog , Rain , Snow    
Averages and records for this station are not official NWS values.
T = Trace of Precipitation, MM = Missing Value Source: NWS Daily Summary

Daily Weather History Graph

Daily Weather History Graph

Search for Another Location

Airport or City:

Trip Planner

Search our weather history database for the weather conditions in past years. The results will help you decide how hot, cold, wet, or windy it might be!

Date:

Astronomy

Nov. 08, 2012 Rise Set
Actual Time 6:37 AM PST 4:14 PM PST
Civil Twilight 6:04 AM PST 4:47 PM PST
Nautical Twilight 5:28 AM PST 5:24 PM PST
Astronomical Twilight 4:52 AM PST 6:00 PM PST
Moon 12:14 AM PST (11/8) 1:18 PM PST (11/8)
Length of Visible Light 10h 42m
Length of Day
9h 36m
Waning Crescent, 32% of the Moon is Illuminated
Nov 8
Waning Crescent
Nov 13
New
Nov 20
First Quarter
Nov 28
Full
Dec 6
Last Quarter

Hourly Weather History & Observations

Time (PST) Temp. Windchill Dew Point Humidity Pressure Visibility Wind Dir Wind Speed Gust Speed Precip Events Conditions
12:53 AM 24.1 °F 16.0 °F 21.9 °F 91% 29.95 in 10.0 mi ESE 6.9 mph - N/A   Clear
1:53 AM 24.1 °F 15.2 °F 21.9 °F 91% 29.93 in 10.0 mi ESE 8.1 mph - N/A   Clear
2:53 AM 24.1 °F 16.0 °F 21.9 °F 91% 29.91 in 10.0 mi ESE 6.9 mph - N/A   Clear
3:04 AM 24.8 °F 16.9 °F 21.2 °F 86% 29.81 in 10.0 mi Variable 6.9 mph - N/A   Scattered Clouds
3:53 AM 23.0 °F 13.9 °F 19.9 °F 88% 29.89 in 10.0 mi East 8.1 mph - N/A   Clear
4:53 AM 23.0 °F 14.7 °F 19.0 °F 85% 29.87 in 10.0 mi Variable 6.9 mph 18.4 mph N/A   Clear
5:53 AM 23.0 °F 12.4 °F 19.0 °F 85% 29.85 in 10.0 mi ESE 10.4 mph 21.9 mph N/A   Clear
6:53 AM 24.1 °F 14.4 °F 19.0 °F 81% 29.82 in 10.0 mi ESE 9.2 mph 20.7 mph N/A   Overcast
7:53 AM 23.0 °F 13.1 °F 19.0 °F 85% 29.81 in 10.0 mi East 9.2 mph 21.9 mph N/A   Overcast
9:53 AM 24.1 °F 14.4 °F 19.9 °F 84% 29.76 in 5.0 mi ESE 9.2 mph 19.6 mph 0.00 in Snow Light Snow
10:14 AM 24.8 °F 14.0 °F 19.4 °F 80% 29.64 in 1.8 mi SE 11.5 mph 24.2 mph 0.00 in Snow Light Snow
10:27 AM 24.8 °F 15.3 °F 19.4 °F 80% 29.64 in 1.8 mi ESE 9.2 mph 25.3 mph 0.00 in Snow Light Snow
10:34 AM 24.8 °F 15.3 °F 21.2 °F 86% 29.64 in 2.0 mi ESE 9.2 mph 19.6 mph 0.00 in Snow Light Snow
10:40 AM 24.8 °F 15.3 °F 21.2 °F 86% 29.64 in 1.2 mi ESE 9.2 mph 20.7 mph 0.00 in Snow Light Snow
10:43 AM 24.8 °F 16.1 °F 21.2 °F 86% 29.64 in 0.8 mi ESE 8.1 mph 20.7 mph 0.00 in Snow Light Snow
10:50 AM 23.0 °F 11.7 °F 21.2 °F 93% 29.64 in 0.2 mi ESE 11.5 mph 20.7 mph 0.00 in Fog , Snow Snow
10:53 AM 23.0 °F 10.1 °F 21.9 °F 96% 29.75 in 0.2 mi ESE 15.0 mph 21.9 mph 0.00 in Fog , Snow Snow
11:06 AM 23.0 °F 12.4 °F 21.2 °F 93% 29.63 in 0.2 mi ESE 10.4 mph 21.9 mph 0.02 in Fog , Snow Heavy Snow
11:15 AM 23.0 °F 13.9 °F 21.2 °F 93% 29.63 in 0.2 mi ESE 8.1 mph 19.6 mph 0.02 in Fog , Snow Snow
11:53 AM 23.0 °F 13.9 °F 21.9 °F 96% 29.75 in 0.2 mi ESE 8.1 mph 17.3 mph 0.07 in Fog , Snow Heavy Snow
12:16 PM 23.0 °F 13.9 °F 21.2 °F 93% 29.61 in 0.2 mi ESE 8.1 mph 17.3 mph 0.02 in Fog , Snow Snow
12:41 PM 24.8 °F 16.9 °F 23.0 °F 93% 29.60 in 0.2 mi Variable 6.9 mph - 0.03 in Fog , Snow Snow
12:53 PM 23.0 °F 14.7 °F 21.9 °F 96% 29.71 in 0.2 mi Variable 6.9 mph - 0.05 in Fog , Snow Heavy Snow
1:01 PM 24.8 °F 16.1 °F 23.0 °F 93% 29.59 in 0.2 mi ESE 8.1 mph - 0.01 in Fog , Snow Heavy Snow
1:27 PM 24.8 °F - 21.2 °F 86% 29.59 in 0.5 mi Calm Calm - 0.02 in Fog , Snow Light Snow
1:37 PM 24.8 °F 20.5 °F 23.0 °F 93% 29.59 in 0.5 mi Variable 3.5 mph - 0.03 in Fog , Snow Light Snow
1:45 PM 23.0 °F 18.4 °F 23.0 °F 100% 29.59 in 0.5 mi Variable 3.5 mph - 0.03 in Fog , Snow Light Snow
1:53 PM 23.0 °F 17.0 °F 21.9 °F 96% 29.70 in 0.5 mi Variable 4.6 mph - 0.04 in Fog , Snow Light Snow
2:08 PM 23.0 °F 17.0 °F 21.2 °F 93% 29.58 in 0.2 mi Variable 4.6 mph - 0.00 in Fog , Snow Light Snow
2:53 PM 23.0 °F - 21.9 °F 96% 29.70 in 0.5 mi Calm Calm - 0.03 in Fog , Snow Light Snow
3:03 PM 23.0 °F 17.0 °F 21.2 °F 93% 29.59 in 1.5 mi Variable 4.6 mph - 0.01 in Snow Light Snow
3:12 PM 21.2 °F 14.9 °F 21.2 °F 100% 29.59 in 3.0 mi Variable 4.6 mph - 0.01 in Snow Light Snow
3:28 PM 21.2 °F 13.6 °F 21.2 °F 100% 29.58 in 1.8 mi Variable 5.8 mph - 0.01 in   Overcast
3:35 PM 21.2 °F 12.6 °F 21.2 °F 100% 29.58 in 0.8 mi Variable 6.9 mph - 0.01 in   Mist
3:47 PM 21.2 °F 14.9 °F 21.2 °F 100% 29.58 in 1.8 mi Variable 4.6 mph - 0.01 in   Overcast
3:53 PM 21.9 °F 15.7 °F 21.9 °F 100% 29.70 in 2.5 mi Variable 4.6 mph - 0.01 in   Overcast
3:58 PM 21.2 °F 16.4 °F 21.2 °F 100% 29.58 in 1.2 mi Variable 3.5 mph - N/A   Overcast
4:25 PM 21.2 °F 13.6 °F 21.2 °F 100% 29.56 in 0.8 mi Variable 5.8 mph - N/A Snow Light Snow
4:49 PM 21.2 °F 10.9 °F 21.2 °F 100% 29.58 in 1.5 mi ESE 9.2 mph - N/A Snow Light Snow
4:53 PM 21.9 °F 13.4 °F 21.0 °F 96% 29.70 in 2.5 mi ESE 6.9 mph - N/A Snow Light Snow
5:00 PM 21.2 °F 12.6 °F 21.2 °F 100% 29.57 in 4.0 mi ESE 6.9 mph - 0.00 in Snow Light Snow
5:11 PM 21.2 °F 13.6 °F 21.2 °F 100% 29.57 in 1.8 mi Variable 5.8 mph - 0.00 in Snow Light Snow
5:19 PM 21.2 °F 14.9 °F 21.2 °F 100% 29.57 in 1.0 mi Variable 4.6 mph - 0.00 in Snow Light Snow
5:34 PM 21.2 °F 9.5 °F 21.2 °F 100% 29.56 in 0.8 mi ESE 11.5 mph 17.3 mph 0.00 in Snow Light Snow
5:53 PM 21.9 °F 11.7 °F 21.0 °F 96% 29.68 in 0.8 mi ESE 9.2 mph 17.3 mph 0.02 in Snow Light Snow
6:40 PM 21.2 °F 12.6 °F 21.2 °F 100% 29.55 in 1.0 mi ESE 6.9 mph 17.3 mph 0.02 in Snow Light Snow
6:53 PM 21.9 °F 14.5 °F 21.0 °F 96% 29.68 in 0.8 mi Variable 5.8 mph - 0.02 in Snow Light Snow
7:10 PM 21.2 °F 13.6 °F 21.2 °F 100% 29.56 in 0.2 mi ESE 5.8 mph - 0.05 in Fog , Snow Heavy Snow
7:25 PM 21.2 °F 12.6 °F 21.2 °F 100% 29.56 in 0.5 mi ESE 6.9 mph - 0.07 in Fog , Snow Snow
7:39 PM 21.2 °F 12.6 °F 21.2 °F 100% 29.56 in 1.5 mi ESE 6.9 mph - 0.08 in Snow Light Snow
7:42 PM 21.2 °F 10.9 °F 21.2 °F 100% 29.56 in 3.0 mi ESE 9.2 mph - 0.08 in Snow Light Snow
7:53 PM 21.9 °F 11.0 °F 19.9 °F 92% 29.69 in 7.0 mi SE 10.4 mph 21.9 mph 0.08 in   Overcast
8:17 PM 21.2 °F 10.9 °F 21.2 °F 100% 29.56 in 6.0 mi SE 9.2 mph 19.6 mph 0.00 in Rain Light Freezing Rain
8:37 PM 21.2 °F 10.1 °F 21.2 °F 100% 29.58 in 3.0 mi ESE 10.4 mph 18.4 mph 0.00 in Snow Light Snow
8:46 PM 21.2 °F 11.7 °F 21.2 °F 100% 29.58 in 2.5 mi SE 8.1 mph 19.6 mph 0.00 in Snow Light Snow
8:53 PM 21.9 °F 11.7 °F 19.9 °F 92% 29.71 in 2.0 mi SE 9.2 mph 19.6 mph 0.00 in Snow Light Snow
9:16 PM 21.2 °F 10.9 °F 19.4 °F 93% 29.58 in 1.2 mi SE 9.2 mph 18.4 mph 0.00 in Snow Light Snow
9:53 PM 21.9 °F 13.4 °F 19.9 °F 92% 29.71 in 2.0 mi SE 6.9 mph 18.4 mph 0.01 in Snow Light Snow
10:04 PM 21.2 °F 10.9 °F 21.2 °F 100% 29.58 in 1.2 mi SE 9.2 mph 19.6 mph 0.01 in Snow Light Snow
10:23 PM 23.0 °F 14.7 °F 19.4 °F 86% 29.58 in 0.5 mi SE 6.9 mph 17.3 mph 0.02 in Fog , Snow Snow
10:26 PM 23.0 °F 13.9 °F 19.4 °F 86% 29.58 in 0.2 mi ESE 8.1 mph 17.3 mph 0.03 in Fog , Snow Snow
10:39 PM 23.0 °F 14.7 °F 19.4 °F 86% 29.58 in 0.5 mi ESE 6.9 mph - 0.04 in Fog , Snow Light Snow
10:53 PM 23.0 °F 13.1 °F 19.9 °F 88% 29.72 in 1.0 mi SE 9.2 mph - 0.04 in Snow Light Snow
11:02 PM 23.0 °F 14.7 °F 19.4 °F 86% 29.59 in 0.8 mi SE 6.9 mph - 0.01 in Snow Light Snow
11:15 PM 23.0 °F 12.4 °F 19.4 °F 86% 29.59 in 1.5 mi ESE 10.4 mph 18.4 mph 0.01 in Snow Light Snow
11:21 PM 23.0 °F 13.1 °F 19.4 °F 86% 29.59 in 3.0 mi ESE 9.2 mph 18.4 mph 0.01 in Snow Light Snow
11:30 PM 23.0 °F 14.7 °F 19.4 °F 86% 29.59 in 5.0 mi ESE 6.9 mph - 0.01 in Snow Light Snow
11:39 PM 23.0 °F 14.7 °F 21.2 °F 93% 29.60 in 1.8 mi Variable 6.9 mph - 0.01 in   Overcast
11:53 PM 23.0 °F 14.7 °F 21.0 °F 92% 29.73 in 1.2 mi ESE 6.9 mph - 0.01 in Snow Light Snow